Zurück zum Katalog

STARLINK-36112

AktivKommunikationVLEO
NORAD 66944·PAYLOAD·🇺🇸 United States

Gestartet Dec 7, 2025 von Vandenberg Space Force Base

Loading…

Nächste Überflüge (nächste 24 Stunden)

TLE

AktuellSource: CelesTrak SupGP

Epoche: Sep 14, 2026, 21:37 UTC

1 66944C 25286V   26257.90118056  .00012281  00000+0  36267-3 0  2571
2 66944  53.1577 195.6200 0001253  89.3926 202.4851 15.34398410    11

Verfolge STARLINK-36112 in Echtzeit mit AllMySat

Download on the App Store